Dumas, TX

9:11 PM CST on December 04, 2016 (GMT -0600)
Moore County

Weather History for KDUX - January, 2014

Change the Weather History Date:

Sunday, January 26, 2014

  Actual Average (KDHT) Record (KDHT)
Temperature  
Mean Temperature 44 °F 35 °F  
Max Temperature 58 °F 51 °F 75 °F (1975)
Min Temperature 28 °F 20 °F -2 °F (1963)
Degree Days  
Heating Degree Days 22 30  
Month to date heating degree days 791  
Since 1 July heating degree days 2734  
Cooling Degree Days 0 0  
Month to date cooling degree days 0  
Year to date cooling degree days 0  
Moisture  
Dew Point 23 °F    
Average Humidity 46    
Maximum Humidity 74    
Minimum Humidity 29    
Precipitation  
Precipitation 0.00 in 0.02 in 0.44 in (1994)
Month to date precipitation 0.42  
Year to date precipitation 0.42  
Snow  
Snow 0.00 in 0.10 in 1.00 in (2000)
Month to date snowfall 3.5  
Since 1 July snowfall 9.7  
Snow Depth -    
Sea Level Pressure  
Sea Level Pressure 29.85 in    
Wind  
Wind Speed 12 mph (North)    
Max Wind Speed 31 mph    
Max Gust Speed 47 mph    
Visibility 10 miles    
Events      
T = Trace of Precipitation, MM = Missing Value Source: NWS Daily Summary

Daily Weather History Graph

Daily Weather History Graph

Search for Another Location

Airport or City:

Trip Planner

Search our weather history database for the weather conditions in past years. The results will help you decide how hot, cold, wet, or windy it might be!

Date:

Astronomy

Jan. 26, 2014 Rise Set
Actual Time 7:52 AM CST 6:09 PM CST
Civil Twilight 7:25 AM CST 6:36 PM CST
Nautical Twilight 6:54 AM CST 7:07 PM CST
Astronomical Twilight 6:24 AM CST 7:37 PM CST
Moon 3:31 AM CST (1/26) 2:01 PM CST (1/26)
Length of Visible Light 11h 11m
Length of Day
10h 16m
Waning Crescent, 23% of the Moon is Illuminated
Jan 26
Waning Crescent
Jan 30
New
Feb 6
First Quarter
Feb 14
Full
Feb 22
Last Quarter

Hourly Weather History & Observations

Time (CST) Temp. Windchill Dew Point Humidity Pressure Visibility Wind Dir Wind Speed Gust Speed Precip Events Conditions
12:15 AM 31.1 °F 23.7 °F 18.3 °F 59% 29.88 in 10.0 mi South 8.1 mph - N/A   Clear
12:35 AM 30.7 °F 23.3 °F 18.5 °F 60% 29.87 in 10.0 mi SSW 8.1 mph - N/A   Clear
12:55 AM 29.3 °F 20.2 °F 18.3 °F 64% 29.86 in 10.0 mi SSW 10.4 mph - N/A   Clear
1:15 AM 29.3 °F 20.2 °F 18.7 °F 65% 29.84 in 10.0 mi SSW 10.4 mph - N/A   Clear
1:35 AM 31.1 °F 22.4 °F 18.7 °F 60% 29.84 in 10.0 mi SW 10.4 mph - N/A   Clear
1:55 AM 30.2 °F 21.9 °F 18.5 °F 62% 29.83 in 10.0 mi WSW 9.2 mph - N/A   Clear
2:15 AM 31.5 °F 23.5 °F 18.3 °F 58% 29.82 in 10.0 mi WSW 9.2 mph - N/A   Clear
2:35 AM 32.2 °F 23.8 °F 17.4 °F 55% 29.82 in 10.0 mi WSW 10.4 mph - N/A   Clear
2:55 AM 30.6 °F 22.4 °F 17.6 °F 59% 29.82 in 10.0 mi West 9.2 mph - N/A   Clear
3:15 AM 31.1 °F 23.1 °F 18.0 °F 58% 29.82 in 10.0 mi West 9.2 mph - N/A   Clear
3:35 AM 32.0 °F 23.6 °F 18.3 °F 57% 29.82 in 10.0 mi West 10.4 mph - N/A   Clear
3:55 AM 33.3 °F 24.1 °F 19.8 °F 58% 29.81 in 10.0 mi West 12.7 mph - N/A   Clear
4:15 AM 34.5 °F 25.7 °F 20.1 °F 56% 29.81 in 10.0 mi WNW 12.7 mph - N/A   Clear
4:35 AM 36.1 °F 27.7 °F 20.7 °F 53% 29.81 in 10.0 mi NW 12.7 mph - N/A   Clear
4:55 AM 37.4 °F 30.3 °F 21.0 °F 52% 29.81 in 10.0 mi NW 10.4 mph - N/A   Clear
5:15 AM 35.6 °F 27.5 °F 21.6 °F 57% 29.81 in 10.0 mi NW 11.5 mph - N/A   Clear
5:35 AM 39.9 °F 30.0 °F 23.4 °F 52% 29.80 in 10.0 mi NNW 21.9 mph 26.5 mph N/A   Clear
5:55 AM 41.4 °F 31.6 °F 23.2 °F 48% 29.80 in 10.0 mi NNW 23.0 mph - N/A   Clear
6:15 AM 40.5 °F 30.7 °F 23.0 °F 50% 29.82 in 10.0 mi NNW 21.9 mph - N/A   Clear
6:35 AM 39.7 °F 30.3 °F 23.0 °F 51% 29.82 in 10.0 mi NNW 19.6 mph - N/A   Clear
6:55 AM 39.6 °F 29.7 °F 22.8 °F 51% 29.82 in 10.0 mi NNW 20.7 mph - N/A   Clear
7:15 AM 38.3 °F 29.3 °F 22.8 °F 54% 29.83 in 10.0 mi North 16.1 mph 21.9 mph N/A   Clear
7:35 AM 38.3 °F 29.0 °F 22.6 °F 53% 29.84 in 10.0 mi NNW 17.3 mph - N/A   Clear
7:55 AM 37.4 °F 28.2 °F 22.3 °F 54% 29.84 in 10.0 mi North 16.1 mph - N/A   Clear
8:15 AM 37.4 °F 28.2 °F 22.1 °F 54% 29.85 in 10.0 mi North 16.1 mph - N/A   Clear
8:35 AM 39.4 °F 30.1 °F 22.6 °F 51% 29.86 in 10.0 mi North 18.4 mph 23.0 mph N/A   Clear
8:55 AM 42.3 °F 33.6 °F 23.0 °F 47% 29.86 in 10.0 mi North 19.6 mph 24.2 mph N/A   Clear
9:15 AM 43.9 °F 35.4 °F 23.2 °F 44% 29.86 in 10.0 mi North 20.7 mph - N/A   Clear
9:35 AM 46.0 °F 38.5 °F 23.9 °F 42% 29.87 in 10.0 mi North 19.6 mph 25.3 mph N/A   Clear
9:55 AM 48.6 °F - 24.8 °F 39% 29.88 in 10.0 mi North 19.6 mph 25.3 mph N/A   Clear
10:15 AM 50.2 °F - 25.0 °F 37% 29.89 in 10.0 mi North 19.6 mph 24.2 mph N/A   Clear
10:35 AM 51.4 °F - 24.8 °F 35% 29.90 in 10.0 mi North 18.4 mph - N/A   Clear
10:55 AM 52.2 °F - 25.2 °F 35% 29.90 in 10.0 mi North 16.1 mph 26.5 mph N/A   Clear
11:15 AM 52.5 °F - 25.2 °F 35% 29.90 in 10.0 mi North 20.7 mph 25.3 mph N/A   Clear
11:35 AM 53.2 °F - 25.5 °F 34% 29.90 in 10.0 mi North 15.0 mph - N/A   Clear
11:55 AM 54.1 °F - 25.9 °F 34% 29.89 in 10.0 mi North 12.7 mph 24.2 mph N/A   Clear
12:15 PM 55.2 °F - 26.1 °F 33% 29.88 in 10.0 mi NNE 13.8 mph 19.6 mph N/A   Clear
12:35 PM 56.3 °F - 26.2 °F 32% 29.87 in 10.0 mi North 10.4 mph 18.4 mph N/A   Clear
12:55 PM 56.7 °F - 26.6 °F 32% 29.86 in 10.0 mi North 16.1 mph 19.6 mph N/A   Clear
1:15 PM 56.8 °F - 26.2 °F 31% 29.84 in 10.0 mi NNE 13.8 mph 19.6 mph N/A   Clear
1:35 PM 57.0 °F - 26.6 °F 31% 29.83 in 10.0 mi NNE 11.5 mph - N/A   Clear
1:55 PM 57.6 °F - 26.8 °F 31% 29.82 in 10.0 mi NNE 11.5 mph - N/A   Clear
2:15 PM 57.6 °F - 26.4 °F 30% 29.80 in 10.0 mi North 9.2 mph 16.1 mph N/A   Clear
2:35 PM 58.5 °F - 26.4 °F 29% 29.79 in 10.0 mi NNE 8.1 mph 17.3 mph N/A   Clear
2:55 PM 58.6 °F - 26.2 °F 29% 29.78 in 10.0 mi North 8.1 mph - N/A   Clear
3:15 PM 58.5 °F - 26.1 °F 29% 29.78 in 10.0 mi NE 6.9 mph - N/A   Clear
3:35 PM 58.5 °F - 26.2 °F 29% 29.78 in 10.0 mi North 4.6 mph - N/A   Clear
3:55 PM 58.6 °F - 25.9 °F 29% 29.78 in 10.0 mi NNE 4.6 mph - N/A   Clear
4:15 PM 58.5 °F - 25.9 °F 29% 29.78 in 10.0 mi Calm Calm - N/A   Clear
4:35 PM 58.1 °F - 25.7 °F 29% 29.78 in 10.0 mi Calm Calm - N/A   Clear
4:55 PM 58.1 °F - 25.7 °F 29% 29.79 in 10.0 mi Calm Calm - N/A   Clear
5:15 PM 58.1 °F - 25.7 °F 29% 29.79 in 10.0 mi SSW 3.5 mph - N/A   Clear
5:35 PM 57.0 °F - 25.5 °F 30% 29.79 in 10.0 mi Calm Calm - N/A   Clear
5:55 PM 55.8 °F - 25.3 °F 31% 29.79 in 10.0 mi Calm Calm - N/A   Clear
6:15 PM 52.9 °F - 24.8 °F 34% 29.79 in 10.0 mi Calm Calm - N/A   Clear
6:35 PM 52.7 °F - 25.3 °F 35% 29.80 in 10.0 mi Calm Calm - N/A   Clear
6:55 PM 48.0 °F - 23.9 °F 39% 29.81 in 10.0 mi Calm Calm - N/A   Clear
7:15 PM 48.2 °F - 25.5 °F 41% 29.83 in 10.0 mi East 6.9 mph - N/A   Clear
7:35 PM 45.3 °F 41.1 °F 24.8 °F 45% 29.83 in 10.0 mi East 8.1 mph - N/A   Clear
7:55 PM 41.9 °F 36.9 °F 24.1 °F 49% 29.84 in 10.0 mi East 8.1 mph - N/A   Clear
8:15 PM 41.9 °F 36.3 °F 23.5 °F 48% 29.85 in 10.0 mi ENE 9.2 mph - N/A   Clear
8:35 PM 43.3 °F 38.1 °F 24.3 °F 47% 29.86 in 10.0 mi East 9.2 mph - N/A   Clear
8:55 PM 44.2 °F 38.4 °F 23.9 °F 45% 29.87 in 10.0 mi ENE 11.5 mph - N/A   Clear
9:15 PM 45.3 °F 39.3 °F 24.3 °F 44% 29.87 in 10.0 mi ENE 12.7 mph - N/A   Clear
9:35 PM 45.0 °F 38.5 °F 23.9 °F 44% 29.88 in 10.0 mi ENE 13.8 mph - N/A   Clear
9:55 PM 43.5 °F 36.4 °F 23.5 °F 45% 29.91 in 10.0 mi ENE 15.0 mph - N/A   Clear
10:15 PM 40.3 °F 32.2 °F 23.4 °F 51% 29.93 in 10.0 mi NE 15.0 mph - N/A   Clear
10:35 PM 36.9 °F 24.2 °F 26.1 °F 65% 29.98 in 2.5 mi NE 29.9 mph 47.2 mph N/A   Haze
10:55 PM 32.2 °F 18.4 °F 24.6 °F 74% 30.02 in 3.0 mi NNE 27.6 mph 46.0 mph N/A   Haze
11:15 PM 30.9 °F 15.9 °F 21.7 °F 69% 30.04 in 7.0 mi NNE 31.1 mph 44.9 mph N/A   Mostly Cloudy
11:35 PM 29.3 °F 14.2 °F 19.0 °F 66% 30.07 in 7.0 mi NNE 28.8 mph 39.1 mph N/A   Scattered Clouds
11:55 PM 28.0 °F 13.0 °F 19.0 °F 69% 30.09 in 10.0 mi NNE 26.5 mph 38.0 mph N/A   Scattered Clouds